Theta_e
329 328 328 327 327 326 326 327 323 324 318 308 304 302 303 304 305 305 306 306 307 307 307 307 307 307 306 306 306 306 307 308 309 308 309 310 307 306 306 306 313 318 323
328 328 327 326 321 325 325 325 323 322 321 319 310 304 302 303 304 305 305 306 306 306 307 307 307 306 306 307 311 313 314 309 309 307 306 310 313 313 313 310 308 310 317
328 327 326 326 325 324 326 325 324 324 323 323 322 315 306 303 302 303 304 305 306 306 306 306 306 306 306 311 318 320 316 308 308 306 306 306 305 307 308 306 306 306 307
328 328 327 326 325 325 324 322 323 326 323 321 321 321 316 307 304 302 302 303 304 305 306 306 306 305 305 307 314 317 310 313 309 307 306 306 308 308 308 305 304 304 305
327 327 327 326 326 325 323 323 323 324 324 321 319 319 318 313 307 305 302 301 302 303 304 305 305 305 305 305 309 309 311 315 313 310 306 305 306 307 306 303 302 302 303
323 323 323 324 325 325 325 323 322 323 322 319 318 317 316 316 314 311 307 304 301 301 302 303 304 304 304 304 305 307 307 315 315 313 307 304 302 302 303 300 300 300 301
319 320 320 321 321 321 322 321 320 319 317 317 316 315 314 314 314 314 314 311 306 302 300 301 302 302 303 303 303 305 307 315 315 314 309 304 301 300 299 300 299 299 300
315 315 315 316 317 317 318 317 317 316 315 314 313 311 311 311 310 305 302 301 301 302 302 300 300 301 301 302 302 303 304 307 313 314 312 309 301 299 298 298 299 299 299
310 311 311 312 312 312 312 312 312 311 311 311 310 309 307 304 307 309 309 308 307 300 299 299 299 299 299 300 301 301 302 303 304 307 312 312 306 299 297 297 297 298 299
303 303 303 303 304 307 308 307 308 307 307 307 307 307 306 304 302 302 304 307 308 308 306 302 299 299 298 298 299 299 300 300 301 302 304 309 309 302 297 296 296 296 297
300 300 300 300 300 300 300 300 300 300 301 303 304 304 304 304 304 302 301 301 305 307 307 305 303 301 300 299 298 299 299 299 299 299 300 302 307 303 300 297 296 295 296
293 293 292 292 292 292 292 293 294 296 297 298 298 300 301 301 301 301 300 301 301 302 304 306 306 306 305 301 299 298 298 298 298 298 297 298 299 300 300 299 296 295 297
291 291 290 290 290 289 289 288 288 289 289 289 291 294 296 297 298 299 299 299 299 299 300 301 303 304 305 306 305 301 298 298 298 298 297 297 296 297 297 298 298 295 296
290 289 289 288 288 288 288 288 288 287 287 287 287 287 287 288 289 292 294 295 296 296 297 297 298 299 301 303 304 305 303 298 298 298 298 297 296 296 296 296 297 295 294
289 288 288 288 288 287 287 287 287 287 287 287 287 287 286 287 287 287 286 288 292 293 294 295 295 296 297 298 299 301 302 303 299 297 297 297 296 296 295 295 295 294 294
288 288 288 287 286 286 286 286 286 286 286 286 286 286 286 286 286 286 286 286 286 286 290 290 292 294 295 295 296 297 299 301 301 298 296 296 296 296 296 295 294 294 294
287 286 286 286 286 286 285 285 285 285 286 286 285 285 285 285 285 285 286 285 285 285 285 286 287 287 288 290 294 296 296 297 299 301 299 296 295 295 295 296 295 294 293
285 285 285 285 285 285 285 285 285 285 285 285 284 284 284 284 284 284 284 284 284 284 284 284 286 286 287 287 287 288 294 296 296 297 300 300 296 295 295 295 295 294 293
285 285 285 285 285 285 284 284 284 284 284 285 285 285 285 284 284 284 284 283 283 283 283 283 284 285 286 286 286 287 287 289 295 296 296 298 299 298 296 295 295 295 295
285 284 284 284 284 284 284 284 284 284 284 284 283 283 283 282 282 282 281 282 282 283 282 282 282 283 284 285 285 285 286 287 287 290 296 295 296 298 298 296 295 295 295
284 284 284 283 283 283 284 283 283 283 282 282 282 281 279 278 278 279 279 279 279 280 281 282 282 283 284 284 284 285 285 285 286 286 288 295 296 295 297 297 295 295 295
283 283 283 283 283 283 283 282 281 281 280 279 279 278 276 276 275 275 277 278 279 280 280 280 280 281 282 283 284 285 285 285 285 286 286 288 293 296 295 296 297 295 295
283 283 283 282 283 282 281 281 280 278 278 276 275 274 273 273 272 272 273 274 275 276 277 277 278 278 279 280 282 283 284 285 285 285 285 285 286 287 293 295 295 295 295
282 282 282 282 282 281 280 279 278 276 275 274 272 271 271 271 271 271 272 273 273 274 274 275 275 276 276 277 278 280 281 282 283 284 285 285 286 286 287 292 295 294 294
282 282 282 282 281 280 278 278 276 274 272 271 271 271 271 271 271 272 273 273 273 273 274 274 275 276 277 278 279 279 280 282 283 284 285 285 285 286 287 287 290 294 294
281 281 281 280 279 279 277 276 275 271 271 271 271 271 271 271 272 273 273 273 273 273 273 274 275 275 275 275 275 277 278 279 281 284 285 286 285 286 286 286 286 289 292
Wind_Speed
19 20 19 20 20 20 19 18 17 15 15 15 16 16 16 15 14 13 12 12 11 11 10 11 11 10 10 11 12 12 14 12 14 13 11 11 14 17 19 17 14 14 14
22 22 20 20 19 21 20 20 19 16 15 17 17 19 19 18 18 17 16 14 13 12 12 12 12 13 13 13 10 9 10 11 13 11 11 10 9 10 12 16 19 18 19
10 14 18 19 16 19 20 22 21 20 20 19 19 20 21 21 21 20 19 18 17 15 14 14 14 14 13 10 11 8 9 17 13 14 11 12 15 13 16 17 16 17 17
10 13 15 16 17 19 19 18 23 24 21 22 21 22 23 23 23 22 22 21 20 19 18 17 16 15 14 15 9 14 15 15 15 16 11 10 11 11 13 16 14 15 15
8 8 10 11 14 15 18 19 21 22 20 22 22 23 23 23 24 24 24 24 23 22 21 20 19 18 16 17 16 15 13 16 17 15 12 10 10 11 14 14 13 14 14
11 12 12 12 13 14 13 16 14 20 17 17 22 24 24 25 24 25 25 27 27 26 24 23 22 21 20 19 20 18 15 15 16 16 17 14 13 14 15 15 14 12 12
9 10 11 12 11 8 9 10 12 12 14 16 18 22 24 27 27 25 25 26 27 28 28 27 26 24 23 22 22 22 18 17 18 19 20 15 15 15 16 15 15 13 12
10 11 13 14 13 12 11 12 13 15 17 17 18 21 18 23 19 10 13 12 17 25 29 30 29 28 26 25 25 25 24 21 19 21 21 23 16 15 15 15 16 16 15
8 9 9 11 14 16 18 19 18 18 17 17 19 16 8 6 22 26 25 26 23 14 13 21 27 30 29 29 29 28 28 27 27 24 23 27 23 17 16 17 17 17 16
9 9 8 7 8 11 14 16 18 19 21 20 21 19 18 21 17 22 26 30 31 30 29 22 19 17 19 25 30 31 31 30 30 30 29 28 32 24 20 18 18 19 19
11 11 11 11 10 9 9 10 10 11 14 16 17 19 22 23 23 26 34 29 34 33 34 33 32 30 28 27 24 24 28 31 32 31 31 32 36 33 26 22 20 19 20
12 13 13 14 14 14 14 15 15 13 12 12 14 16 19 19 21 24 30 39 40 41 37 37 38 36 35 33 31 29 28 28 31 32 32 33 38 38 31 28 24 21 20
14 15 16 16 16 17 16 16 16 16 16 16 15 14 15 19 24 26 27 33 39 41 42 41 37 37 36 36 37 34 32 30 29 31 33 34 37 38 36 33 30 26 23
15 15 15 16 17 18 18 19 20 19 18 18 18 18 17 17 18 20 25 28 38 41 39 35 34 33 32 34 35 36 38 34 29 29 32 35 36 39 38 34 32 29 28
15 17 18 19 19 20 22 23 23 24 24 24 24 24 24 22 21 21 21 22 24 28 40 34 31 31 31 32 31 33 35 36 37 32 30 34 37 38 38 36 34 32 31
16 17 19 20 21 23 25 26 28 30 31 31 32 32 32 30 30 26 26 26 25 27 33 36 38 38 38 37 33 33 35 36 38 36 34 33 35 38 39 37 36 35 33
18 19 20 22 24 28 31 34 36 37 38 39 38 38 38 37 37 36 33 32 32 31 36 41 40 37 36 36 35 33 33 35 38 40 39 35 34 37 40 40 37 37 36
20 21 23 26 29 32 35 38 41 43 45 45 44 44 43 41 40 40 39 40 39 38 38 42 43 43 42 37 35 34 34 33 35 37 40 42 40 37 37 39 40 39 39
24 26 29 33 36 39 42 45 46 47 46 46 46 45 45 45 45 43 41 41 42 43 42 42 47 45 45 43 41 38 35 35 35 35 37 41 45 45 42 41 40 40 39
27 28 32 35 38 42 43 44 45 46 46 47 47 48 47 46 46 44 43 42 41 41 43 45 47 47 46 46 45 43 42 36 36 34 34 38 41 45 47 46 46 44 41
29 32 35 37 40 42 42 42 43 45 46 48 49 49 48 45 37 34 35 40 40 40 40 38 36 36 38 42 45 44 43 41 40 38 35 37 40 42 48 48 48 48 47
32 35 37 40 42 42 42 43 44 45 46 46 48 47 47 46 44 34 32 32 33 34 36 37 38 36 39 31 34 40 42 41 42 36 31 36 32 39 43 47 49 49 49
35 36 38 40 41 41 42 44 44 43 44 43 43 42 41 37 35 34 33 32 34 36 35 37 42 44 40 35 33 36 39 41 48 44 39 44 38 41 39 36 41 47 49
35 37 38 39 40 40 41 42 41 40 40 38 37 35 33 33 32 29 30 32 32 31 31 31 33 39 39 41 38 41 44 45 49 49 43 48 42 46 41 39 39 37 42
34 36 38 39 39 39 38 39 38 36 37 37 34 33 31 32 29 26 29 33 35 36 34 32 33 33 34 36 36 41 45 38 46 44 40 47 51 44 41 43 40 38 39
34 36 37 37 37 38 36 35 33 32 34 34 34 36 34 29 28 28 31 34 39 39 37 34 32 33 35 36 36 35 40 42 47 43 40 42 47 44 38 43 43 41 39
Wind_Direction
261 265 267 271 278 282 286 293 290 292 291 282 273 269 269 270 271 273 276 281 287 294 298 302 307 307 306 299 295 295 290 288 287 284 264 250 244 244 244 244 238 231 231
262 261 267 271 289 281 287 296 301 296 293 292 287 281 277 275 272 272 273 275 279 286 292 297 303 307 311 306 300 301 290 296 292 298 281 262 253 252 239 240 243 235 229
283 270 267 274 285 289 289 292 290 295 300 297 297 288 280 276 275 275 275 276 277 279 283 287 291 296 303 296 279 261 273 299 299 303 283 263 267 259 260 265 264 259 250
273 270 269 280 286 283 285 288 283 279 286 296 299 299 289 281 276 273 270 271 272 273 275 278 282 285 288 286 264 251 277 283 300 299 301 269 262 266 271 280 273 267 256
277 284 284 282 284 282 285 284 278 277 282 285 293 297 294 288 283 279 276 271 269 269 270 272 275 277 277 276 277 276 280 270 294 277 295 275 262 262 271 284 283 276 272
291 293 289 286 283 283 281 278 291 283 275 286 286 286 294 292 289 285 281 278 275 272 270 268 269 271 274 272 269 269 268 262 267 272 295 288 272 270 266 275 276 274 266
301 297 295 294 289 320 311 300 296 292 304 301 300 297 288 286 292 290 284 281 278 276 271 269 268 267 267 269 271 270 271 256 266 272 285 287 285 279 272 268 267 266 263
306 313 316 319 327 310 309 307 306 313 305 302 308 315 315 297 306 309 296 292 289 277 269 268 268 268 266 264 264 265 265 253 251 270 272 276 280 279 277 274 270 264 260
333 311 299 293 306 313 313 314 314 313 313 310 307 300 310 290 297 286 277 287 299 305 296 282 276 274 272 269 266 265 264 262 258 251 259 267 276 278 278 279 273 267 260
19 8 355 337 319 301 296 295 296 297 297 302 299 301 295 292 298 302 290 285 283 284 286 289 288 286 283 277 274 272 269 265 262 258 253 253 264 276 279 278 273 268 264
44 39 33 25 12 0 346 327 322 320 310 296 294 297 294 294 292 292 299 298 287 280 280 280 279 277 278 280 279 280 276 272 268 264 258 251 258 268 272 277 276 271 266
27 24 21 19 17 11 9 4 2 355 342 321 309 298 296 299 295 294 295 295 297 296 286 281 282 279 277 274 273 274 278 279 271 265 259 254 254 262 266 270 274 269 262
14 13 10 7 5 6 2 358 354 353 350 349 342 326 311 302 296 291 291 295 298 297 296 291 285 283 280 278 275 272 270 274 277 271 263 257 256 259 263 264 267 269 261
3 3 360 357 354 350 347 344 343 342 339 335 331 326 322 319 317 311 300 294 294 293 297 300 298 293 286 279 276 274 268 267 274 275 268 262 256 257 260 261 262 263 262
351 349 348 346 344 341 338 335 332 329 327 325 321 318 315 313 307 307 308 305 295 292 298 298 296 297 295 293 286 278 273 267 264 269 270 264 263 260 260 259 259 259 259
335 333 334 336 336 335 332 329 327 324 320 317 314 310 308 307 304 302 300 296 295 292 287 293 297 298 298 294 289 282 277 272 266 262 265 268 264 263 264 261 259 258 257
331 330 330 330 329 328 326 323 321 318 315 312 309 305 302 300 298 297 295 292 290 288 288 290 292 295 294 297 297 292 281 275 268 263 261 262 265 264 261 262 259 255 255
329 328 327 326 324 322 321 320 318 316 315 312 309 306 303 300 295 292 290 288 287 286 286 289 289 290 291 291 292 293 293 284 274 267 261 257 258 262 264 261 259 256 253
321 321 322 323 323 322 321 320 317 315 313 310 309 307 305 303 301 298 294 288 285 284 284 285 286 286 287 291 290 287 286 288 286 277 268 261 256 255 259 262 260 258 255
315 316 318 319 319 319 318 318 316 314 311 309 307 304 302 300 298 297 296 294 290 286 284 284 285 286 285 285 287 288 288 285 284 282 276 268 261 256 253 256 260 259 256
312 314 315 315 316 317 317 317 314 312 309 306 303 300 298 295 293 288 289 289 290 290 289 288 287 288 286 284 283 288 287 290 285 281 277 269 265 259 253 252 254 257 257
311 313 315 316 317 317 318 317 315 313 310 306 304 301 299 298 295 289 284 279 278 280 280 281 281 279 281 283 287 284 284 286 286 286 286 279 271 267 262 255 251 253 257
310 312 314 315 316 318 319 318 317 314 311 309 308 306 304 303 299 295 290 284 275 268 269 273 273 271 277 277 276 275 278 278 276 276 280 279 273 268 266 265 257 252 253
308 312 315 317 317 319 320 319 318 315 312 312 310 308 305 304 303 300 300 297 295 295 291 286 281 282 279 277 273 270 270 270 271 270 268 269 268 271 270 265 262 255 252
308 313 315 317 318 322 322 321 319 318 314 314 313 313 316 313 308 301 298 295 293 290 289 283 277 277 275 274 273 274 271 273 268 265 260 261 265 267 269 269 263 257 253
310 313 314 317 321 322 324 321 319 317 316 318 323 322 317 304 301 296 293 293 294 296 301 303 300 299 298 294 283 269 270 269 264 267 259 253 259 260 262 268 267 261 255